Location: *
(24.1434°N, 56.8729°E)
Time: 04:02:29
(UTC+00:00)

BREEZE M DEB (TANK) - Pass Details

Date: 09 April 2020
Orbit: 303 x 11878 km, 49.5° (Epoch: 05 June)

Event Time Altitude Azimuth Distance (km) Brightness Sun altitude
Rises 15:20:42 0° 245° (WSW) 2,035 6.1 -11.7°
Reaches altitude 10° 15:22:33 10° 261° (W) 1,172 5.2 -12.1°
Maximum altitude 15:24:29 26° 324° (NW) 725 3.6 -12.6°
Drops below altitude 10° 15:27:11 10° 25° (NNE) 1,678 4.7 -13.2°
Sets 15:30:34 0° 37° (NE) 3,312 6.1 -13.9°
